Nellis Air Force Base Las Vegas US
ICAO: KLSV
IATA: LSV
Category: Medium
Scheduled Services: No

Elevation: 1870 ft
TransAlt. 18000 ft.

Airport Communications:
ALCE AMC:25.735
APP:118.125
ATIS:27.01
CLNC DEL:120.9
DEP:135.1
GND:121.8
SOF:30.56
PMSV METRO:32.39
ACC COMD POST:32
PTD:139.3
TWR:132.55

KLSV Zoom In..

If you have problems with the map follow the link
https://www.worldairports.se/pages/airport.php?
ICAO=KLSV

Runways:

(A) RW 03L length 10120 ft width 200 ft
---- / hdg 27

(B) RW 03R length 10051 ft width 150 ft
---- / hdg 27

(C) RW 21L length 10051 ft width 150 ft
ILS 109.10 / hdg 207

(D) RW 21R length 10120 ft width 200 ft
---- / hdg 207

Location; KLSV
Day. 14 / Time. 04.58 Zulu
* Altimeter: 29.94
* Temperature: 10° c. 50°f.
* Wind from: 030° Speed 08 kn.
Dewpoint: 06° c.
Visibility: 10 Statute Miles.
Clouds: Clear (automated report).

KLSV 140458Z AUTO 03008KT 10SM CLR 10/06 A2994 RMK AO2 SLP139 T00950059 $


Wind From 030°
Speed 08 kn.

 
 
jpsmedia worldairports.se 2019   terms of use